Home   Weather   Visalia   Past weeks

Flag for USA Past Weather in Visalia, California, USA — Yesterday and Last 2 Weeks

Now
55 °F

Clear.


Feels Like: 54 °F
Forecast: 53 / 78 °F
Wind: 5 mph from West

Location: Visalia Municipal

Current Time: Oct 1, 2016 at 5:10:19 AM

Latest Report: Oct 1, 2016 at 3:56 AM


Visibility: 10 mi

Pressure: 30.09 "Hg

Humidity: 69%

Dew Point: 45 °F

Location of VisaliaLocation

Past Weather in Visalia — Graph

°F

Visalia Temperature Yesterday

Maximum temperature yesterday: 89 °F (at 2:56 PM)
Minimum temperature yesterday: 57 °F (at 6:56 AM)
Average temperature yesterday: 72 °F

High & Low Weather Summary for the Past Weeks

 TemperatureHumidityPressure
High101 °F (Sep 19, 2:56 PM)86% (Sep 16, 6:56 AM)30.16 "Hg (Sep 16, 6:56 AM)
Low47 °F (Sep 23, 6:56 AM)13% (Sep 27, 4:56 PM)29.80 "Hg (Sep 27, 5:56 PM)
Average74 °F44%29.97 "Hg
* Reported Sep 16 4:56 AM — Oct 1 3:56 AM, Visalia, Weather by CustomWeather, © 2016

Note: Actual official high and low records may vary slightly from our data, if they occured in-between our weather recording intervals... More about our weather records

Advertising

Visalia Weather History for the Previous 24 Hours

Scroll right to see more
 ConditionsComfort  
Time TempWeatherWind HumidityBarometerVisibility
3:56 AM
Sat, Oct 1
55 °FClear.5 mph69%30.09 "Hg10 mi
2:56 AM58 °FClear.5 mph62%30.07 "Hg10 mi
1:56 AM61 °FClear.8 mph52%30.06 "Hg10 mi
12:56 AM63 °FClear.12 mph47%30.03 "Hg10 mi
11:56 PM
Fri, Sep 30
65 °FClear.14 mph45%30.02 "Hg9 mi
10:56 PM67 °FClear.13 mph47%30.00 "Hg9 mi
9:56 PM69 °FClear.8 mph45%29.98 "Hg10 mi
8:56 PM73 °FClear.10 mph40%29.96 "Hg10 mi
7:56 PM76 °FClear.13 mph39%29.94 "Hg10 mi
6:56 PM81 °FClear.10 mph35%29.93 "Hg10 mi
5:56 PM88 °FSunny.8 mph25%29.93 "Hg10 mi
4:56 PM89 °FSunny.6 mph28%29.93 "Hg10 mi
3:56 PM89 °FSunny.3 mph30%29.96 "Hg10 mi
2:56 PM89 °FSunny.5 mph26%29.98 "Hg10 mi
1:56 PM87 °FSunny.3 mph27%30.00 "Hg10 mi
12:56 PM84 °FSunny.3 mph30%30.03 "Hg9 mi
11:56 AM80 °FSunny.No wind34%30.05 "Hg8 mi
10:56 AM74 °FSunny.5 mph41%30.07 "Hg9 mi
9:56 AM71 °FSunny.3 mph47%30.08 "Hg8 mi
8:56 AM66 °FSunny.3 mph50%30.08 "Hg10 mi
7:56 AM60 °FSunny.3 mph75%30.07 "Hg10 mi
6:56 AM57 °FSunny.3 mph78%30.06 "Hg10 mi
5:56 AM58 °FClear.No wind78%30.05 "Hg10 mi
Weather by CustomWeather, © 2016

See weather overviewHow to use our weather pages